Weather in Cwmbran

United Kingdom     51°39′27″N   3°01′32″W
temp.,
°C
wind,
m/s
gust,
m/s
humid.,
%
clouds,
%
prec.,
mm/h
press.,
hPa
HPBL,
m
4 august, wed
wed401:00+11nw118670 0.1 101310
04:00+10nnw1186100 0.0 101310
07:00+12n1185100 0.0 101320
10:00+17sse11695 0.0 1013531
13:00+19ssw33572 0.3 10121326
16:00+19sw346374 0.6 10121063
19:00+18sw357193 0.6 1011359
22:00+12wsw228680 0.1 101211
5 august, thu
thu501:00+12ssw1183100 0.1 101012
04:00+11s239651 0.0 100846
07:00+12sse299894 0.0 1006435
10:00+14sse71293100 0.4 1004930
13:00+14sse71294100 1.8 1001909
16:00+15sse61299100 5.9 998875
19:00+16sw489143 8.0 997550
22:00+13sw369674 0.3 997165
6 august, fri
fri601:00+14sw51094100 0.6 996704
04:00+14sw6119797 0.6 995647
07:00+14wsw6129698 0.9 995726
10:00+14wsw7129396 0.1 997780
13:00+17wsw9127377 0.3 9981131
16:00+17wsw9137422 0.3 9991253
19:00+14wsw813855 0.6 9991032
22:00+13sw7149244 0.0 1000686
7 august, sat
sat701:00+13sw6129096 0.1 999799
04:00+12ssw5119297 0.0 998690
07:00+12ssw4109341 0.1 997560
10:00+15sw6879100 0.1 997872
13:00+18sw7968100 0.2 9971345
16:00+16wsw7982100 0.5 997891
19:00+16wsw6108866 1.8 999748
22:00+13w5109274 0.2 1001395
8 august, sun
sun801:00+13w598998 0.2 1003496
04:00+12w598463 0.0 1005558
07:00+12w478621 0.0 1006388
10:00+16wsw697115 0.0 10071124
13:00+17sw81068100 0.4 10081346
16:00+14ssw81595100 2.8 1008882
19:00+14sw91595100 8.9 1008829
22:00+14wsw81495100 1.2 1010920